Starlink 32597

operational
NORAD ID: 62304 Int'l Des: 2024-239 Owner: SPXS Country: US Constellation: starlink
LEOCIRCULAR

Starlink 32597について

説明を読み込み中...

リアルタイム位置

3D地球を読み込み中...

次回通過

高度履歴

Altitude vs Time

uPlot chart will show altitude changes over time

軌道要素

1 62304U 24239D 26095.14834046 .00044327 00000-0 14992-2 0 9994
2 62304 53.1619 58.3280 0000919 120.5843 239.5248 15.30213679 73617
Epoch: Apr 5, 2026 • Age: 12 hours

現在のステータス

高度 477.7 km
速度 7.63 km/s
衛星直下点 38.41°N, 139.53°E
打ち上げ日 Dec 13, 2024
運用期間 1.3 years
タイプ internet

技術仕様

分類 Payload
質量 730.00 kg
乾燥質量 700.00 kg
総質量 730.00 kg
長さ 0.30 m
直径 4.10 m
スパン 29.00 m
形状 Box + pan
製造者 SPXS
バスタイプ Starlink V2M
フェーズステータス In Orbit
所有者/国 SPXS/US

大規模コンステレーション

Loading constellations...